owner,sensor,date,latitude,longitude,sea_surface_height_above_sea_level,qcFlag 
COMPS,ioos:station:USF.COMPS:ANC:1,2009-11-01T00:00:00Z,28.1930,-82.7890,0.173,1111122 
COMPS,ioos:station:USF.COMPS:ANC:1,2009-11-01T00:06:00Z,28.1930,-82.7890,0.191,1111122 
COMPS,ioos:station:USF.COMPS:ANC:1,2009-11-01T00:12:00Z,28.1930,-82.7890,0.207,1111122 
COMPS,ioos:station:USF.COMPS:ANC:1,2009-11-01T00:18:00Z,28.1930,-82.7890,0.221,1111122 
COMPS,ioos:station:USF.COMPS:ANC:1,2009-11-01T00:24:00Z,28.1930,-82.7890,0.237,1111122 
COMPS,ioos:station:USF.COMPS:ANC:1,2009-11-01T00:30:00Z,28.1930,-82.7890,0.251,1111122 
COMPS,ioos:station:USF.COMPS:ANC:1,2009-11-01T00:36:00Z,28.1930,-82.7890,0.273,1111122 
COMPS,ioos:station:USF.COMPS:ANC:1,2009-11-01T00:42:00Z,28.1930,-82.7890,0.295,1111122 
COMPS,ioos:station:USF.COMPS:ANC:1,2009-11-01T00:48:00Z,28.1930,-82.7890,0.312,1111122 
COMPS,ioos:station:USF.COMPS:ANC:1,2009-11-01T00:54:00Z,28.1930,-82.7890,0.33,1111122 
COMPS,ioos:station:USF.COMPS:ANC:1,2009-11-01T01:00:00Z,28.1930,-82.7890,0.347,1111122 
COMPS,ioos:station:USF.COMPS:ANC:1,2009-11-01T01:06:00Z,28.1930,-82.7890,0.363,1111122 
COMPS,ioos:station:USF.COMPS:ANC:1,2009-11-01T01:12:00Z,28.1930,-82.7890,0.378,1111122 
COMPS,ioos:station:USF.COMPS:ANC:1,2009-11-01T01:18:00Z,28.1930,-82.7890,0.39,1111122 
COMPS,ioos:station:USF.COMPS:ANC:1,2009-11-01T01:24:00Z,28.1930,-82.7890,0.404,1111122 
COMPS,ioos:station:USF.COMPS:ANC:1,2009-11-01T01:30:00Z,28.1930,-82.7890,0.42,1111122 
COMPS,ioos:station:USF.COMPS:ANC:1,2009-11-01T01:36:00Z,28.1930,-82.7890,0.43,1111122 
COMPS,ioos:station:USF.COMPS:ANC:1,2009-11-01T01:42:00Z,28.1930,-82.7890,0.443,1111122 
COMPS,ioos:station:USF.COMPS:ANC:1,2009-11-01T01:48:00Z,28.1930,-82.7890,0.465,1111122 
COMPS,ioos:station:USF.COMPS:ANC:1,2009-11-01T01:54:00Z,28.1930,-82.7890,0.478,1111122 
COMPS,ioos:station:USF.COMPS:ANC:1,2009-11-01T02:00:00Z,28.1930,-82.7890,0.487,1111122 
COMPS,ioos:station:USF.COMPS:ANC:1,2009-11-01T02:06:00Z,28.1930,-82.7890,0.495,1111122 
COMPS,ioos:station:USF.COMPS:ANC:1,2009-11-01T02:12:00Z,28.1930,-82.7890,0.506,1111122 
COMPS,ioos:station:USF.COMPS:ANC:1,2009-11-01T02:18:00Z,28.1930,-82.7890,0.522,1111122 
COMPS,ioos:station:USF.COMPS:ANC:1,2009-11-01T02:24:00Z,28.1930,-82.7890,0.531,1111122 
COMPS,ioos:station:USF.COMPS:ANC:1,2009-11-01T02:30:00Z,28.1930,-82.7890,0.539,1111122 
COMPS,ioos:station:USF.COMPS:ANC:1,2009-11-01T02:36:00Z,28.1930,-82.7890,0.547,1111122 
COMPS,ioos:station:USF.COMPS:ANC:1,2009-11-01T02:42:00Z,28.1930,-82.7890,0.552,1111122 
COMPS,ioos:station:USF.COMPS:ANC:1,2009-11-01T02:48:00Z,28.1930,-82.7890,0.557,1111122 
COMPS,ioos:station:USF.COMPS:ANC:1,2009-11-01T02:54:00Z,28.1930,-82.7890,0.571,1111122 
COMPS,ioos:station:USF.COMPS:ANC:1,2009-11-01T03:00:00Z,28.1930,-82.7890,0.58,1111122 
COMPS,ioos:station:USF.COMPS:ANC:1,2009-11-01T03:06:00Z,28.1930,-82.7890,0.583,1111122 
COMPS,ioos:station:USF.COMPS:ANC:1,2009-11-01T03:12:00Z,28.1930,-82.7890,0.59,1111122 
COMPS,ioos:station:USF.COMPS:ANC:1,2009-11-01T03:18:00Z,28.1930,-82.7890,0.588,1111122 
COMPS,ioos:station:USF.COMPS:ANC:1,2009-11-01T03:24:00Z,28.1930,-82.7890,0.583,1111122 
COMPS,ioos:station:USF.COMPS:ANC:1,2009-11-01T03:30:00Z,28.1930,-82.7890,0.579,1111122 
COMPS,ioos:station:USF.COMPS:ANC:1,2009-11-01T03:36:00Z,28.1930,-82.7890,0.584,1111122 
COMPS,ioos:station:USF.COMPS:ANC:1,2009-11-01T03:42:00Z,28.1930,-82.7890,0.588,1111122 
COMPS,ioos:station:USF.COMPS:ANC:1,2009-11-01T03:48:00Z,28.1930,-82.7890,0.573,1111122 
COMPS,ioos:station:USF.COMPS:ANC:1,2009-11-01T03:54:00Z,28.1930,-82.7890,0.56,1111122 
COMPS,ioos:station:USF.COMPS:ANC:1,2009-11-01T04:00:00Z,28.1930,-82.7890,0.552,1111122 
COMPS,ioos:station:USF.COMPS:ANC:1,2009-11-01T04:06:00Z,28.1930,-82.7890,0.543,1111122 
COMPS,ioos:station:USF.COMPS:ANC:1,2009-11-01T04:12:00Z,28.1930,-82.7890,0.533,1111122 
COMPS,ioos:station:USF.COMPS:ANC:1,2009-11-01T04:18:00Z,28.1930,-82.7890,0.524,1111122 
COMPS,ioos:station:USF.COMPS:ANC:1,2009-11-01T04:24:00Z,28.1930,-82.7890,0.517,1111122 
COMPS,ioos:station:USF.COMPS:ANC:1,2009-11-01T04:30:00Z,28.1930,-82.7890,0.504,1111122 
COMPS,ioos:station:USF.COMPS:ANC:1,2009-11-01T04:36:00Z,28.1930,-82.7890,0.493,1111122 
COMPS,ioos:station:USF.COMPS:ANC:1,2009-11-01T04:42:00Z,28.1930,-82.7890,0.485,1111122 
COMPS,ioos:station:USF.COMPS:ANC:1,2009-11-01T04:48:00Z,28.1930,-82.7890,0.472,1111122 
COMPS,ioos:station:USF.COMPS:ANC:1,2009-11-01T04:54:00Z,28.1930,-82.7890,0.451,1111122 
COMPS,ioos:station:USF.COMPS:ANC:1,2009-11-01T05:00:00Z,28.1930,-82.7890,0.434,1111122 
COMPS,ioos:station:USF.COMPS:ANC:1,2009-11-01T05:06:00Z,28.1930,-82.7890,0.417,1111122 
COMPS,ioos:station:USF.COMPS:ANC:1,2009-11-01T05:12:00Z,28.1930,-82.7890,0.405,1111122 
COMPS,ioos:station:USF.COMPS:ANC:1,2009-11-01T05:18:00Z,28.1930,-82.7890,0.393,1111122 
COMPS,ioos:station:USF.COMPS:ANC:1,2009-11-01T05:24:00Z,28.1930,-82.7890,0.384,1111122 
COMPS,ioos:station:USF.COMPS:ANC:1,2009-11-01T05:30:00Z,28.1930,-82.7890,0.368,1111122 
COMPS,ioos:station:USF.COMPS:ANC:1,2009-11-01T05:36:00Z,28.1930,-82.7890,0.343,1111122 
COMPS,ioos:station:USF.COMPS:ANC:1,2009-11-01T05:42:00Z,28.1930,-82.7890,0.321,1111122 
COMPS,ioos:station:USF.COMPS:ANC:1,2009-11-01T05:48:00Z,28.1930,-82.7890,0.296,1111122 
COMPS,ioos:station:USF.COMPS:ANC:1,2009-11-01T05:54:00Z,28.1930,-82.7890,0.279,1111122 
COMPS,ioos:station:USF.COMPS:ANC:1,2009-11-01T06:00:00Z,28.1930,-82.7890,0.259,1111122 
COMPS,ioos:station:USF.COMPS:ANC:1,2009-11-01T06:06:00Z,28.1930,-82.7890,0.235,1111122 
COMPS,ioos:station:USF.COMPS:ANC:1,2009-11-01T06:12:00Z,28.1930,-82.7890,0.217,1111122 
COMPS,ioos:station:USF.COMPS:ANC:1,2009-11-01T06:18:00Z,28.1930,-82.7890,0.194,1111122 
COMPS,ioos:station:USF.COMPS:ANC:1,2009-11-01T06:24:00Z,28.1930,-82.7890,0.168,1111122 
COMPS,ioos:station:USF.COMPS:ANC:1,2009-11-01T06:30:00Z,28.1930,-82.7890,0.145,1111122 
COMPS,ioos:station:USF.COMPS:ANC:1,2009-11-01T06:36:00Z,28.1930,-82.7890,0.142,1111122 
COMPS,ioos:station:USF.COMPS:ANC:1,2009-11-01T06:42:00Z,28.1930,-82.7890,0.134,1111122 
COMPS,ioos:station:USF.COMPS:ANC:1,2009-11-01T06:48:00Z,28.1930,-82.7890,0.105,1111122 
COMPS,ioos:station:USF.COMPS:ANC:1,2009-11-01T06:54:00Z,28.1930,-82.7890,0.101,1111122 
COMPS,ioos:station:USF.COMPS:ANC:1,2009-11-01T07:00:00Z,28.1930,-82.7890,0.102,1111122 
COMPS,ioos:station:USF.COMPS:ANC:1,2009-11-01T07:06:00Z,28.1930,-82.7890,0.089,1111122 
COMPS,ioos:station:USF.COMPS:ANC:1,2009-11-01T07:12:00Z,28.1930,-82.7890,0.068,1111122 
COMPS,ioos:station:USF.COMPS:ANC:1,2009-11-01T07:18:00Z,28.1930,-82.7890,0.045,1111122 
COMPS,ioos:station:USF.COMPS:ANC:1,2009-11-01T07:24:00Z,28.1930,-82.7890,0.022,1111122 
COMPS,ioos:station:USF.COMPS:ANC:1,2009-11-01T07:30:00Z,28.1930,-82.7890,-0.001,1111122 
COMPS,ioos:station:USF.COMPS:ANC:1,2009-11-01T07:36:00Z,28.1930,-82.7890,-0.019,1111122 
COMPS,ioos:station:USF.COMPS:ANC:1,2009-11-01T07:42:00Z,28.1930,-82.7890,-0.037,1111122 
COMPS,ioos:station:USF.COMPS:ANC:1,2009-11-01T07:48:00Z,28.1930,-82.7890,-0.057,1111122 
COMPS,ioos:station:USF.COMPS:ANC:1,2009-11-01T07:54:00Z,28.1930,-82.7890,-0.079,1111122 
COMPS,ioos:station:USF.COMPS:ANC:1,2009-11-01T08:00:00Z,28.1930,-82.7890,-0.106,1111122 
COMPS,ioos:station:USF.COMPS:ANC:1,2009-11-01T08:06:00Z,28.1930,-82.7890,-0.132,1111122 
COMPS,ioos:station:USF.COMPS:ANC:1,2009-11-01T08:12:00Z,28.1930,-82.7890,-0.16,1111122 
COMPS,ioos:station:USF.COMPS:ANC:1,2009-11-01T08:18:00Z,28.1930,-82.7890,-0.19,1111122 
COMPS,ioos:station:USF.COMPS:ANC:1,2009-11-01T08:24:00Z,28.1930,-82.7890,-0.217,1111122 
COMPS,ioos:station:USF.COMPS:ANC:1,2009-11-01T08:30:00Z,28.1930,-82.7890,-0.242,1111122 
COMPS,ioos:station:USF.COMPS:ANC:1,2009-11-01T08:36:00Z,28.1930,-82.7890,-0.268,1111122 
COMPS,ioos:station:USF.COMPS:ANC:1,2009-11-01T08:42:00Z,28.1930,-82.7890,-0.299,1111122 
COMPS,ioos:station:USF.COMPS:ANC:1,2009-11-01T08:48:00Z,28.1930,-82.7890,-0.326,1111122 
COMPS,ioos:station:USF.COMPS:ANC:1,2009-11-01T08:54:00Z,28.1930,-82.7890,-0.352,1111122 
COMPS,ioos:station:USF.COMPS:ANC:1,2009-11-01T09:00:00Z,28.1930,-82.7890,-0.377,1111122 
COMPS,ioos:station:USF.COMPS:ANC:1,2009-11-01T09:06:00Z,28.1930,-82.7890,-0.401,1111122 
COMPS,ioos:station:USF.COMPS:ANC:1,2009-11-01T09:12:00Z,28.1930,-82.7890,-0.424,1111122 
COMPS,ioos:station:USF.COMPS:ANC:1,2009-11-01T09:18:00Z,28.1930,-82.7890,-0.445,1111122 
COMPS,ioos:station:USF.COMPS:ANC:1,2009-11-01T09:24:00Z,28.1930,-82.7890,-0.464,1111122 
COMPS,ioos:station:USF.COMPS:ANC:1,2009-11-01T09:30:00Z,28.1930,-82.7890,-0.487,1111122 
COMPS,ioos:station:USF.COMPS:ANC:1,2009-11-01T09:36:00Z,28.1930,-82.7890,-0.501,1111122 
COMPS,ioos:station:USF.COMPS:ANC:1,2009-11-01T09:42:00Z,28.1930,-82.7890,-0.515,1111122 
COMPS,ioos:station:USF.COMPS:ANC:1,2009-11-01T09:48:00Z,28.1930,-82.7890,-0.528,1111122 
COMPS,ioos:station:USF.COMPS:ANC:1,2009-11-01T09:54:00Z,28.1930,-82.7890,-0.537,1111122 
COMPS,ioos:station:USF.COMPS:ANC:1,2009-11-01T10:00:00Z,28.1930,-82.7890,-0.542,1111122 
COMPS,ioos:station:USF.COMPS:ANC:1,2009-11-01T10:06:00Z,28.1930,-82.7890,-0.551,1111122 
COMPS,ioos:station:USF.COMPS:ANC:1,2009-11-01T10:12:00Z,28.1930,-82.7890,-0.556,1111122 
COMPS,ioos:station:USF.COMPS:ANC:1,2009-11-01T10:18:00Z,28.1930,-82.7890,-0.556,1111122 
COMPS,ioos:station:USF.COMPS:ANC:1,2009-11-01T10:24:00Z,28.1930,-82.7890,-0.552,1111122 
COMPS,ioos:station:USF.COMPS:ANC:1,2009-11-01T10:30:00Z,28.1930,-82.7890,-0.544,1111122 
COMPS,ioos:station:USF.COMPS:ANC:1,2009-11-01T10:36:00Z,28.1930,-82.7890,-0.538,1111122 
COMPS,ioos:station:USF.COMPS:ANC:1,2009-11-01T10:42:00Z,28.1930,-82.7890,-0.532,1111122 
COMPS,ioos:station:USF.COMPS:ANC:1,2009-11-01T10:48:00Z,28.1930,-82.7890,-0.522,1111122 
COMPS,ioos:station:USF.COMPS:ANC:1,2009-11-01T10:54:00Z,28.1930,-82.7890,-0.508,1111122 
COMPS,ioos:station:USF.COMPS:ANC:1,2009-11-01T11:00:00Z,28.1930,-82.7890,-0.491,1111122 
COMPS,ioos:station:USF.COMPS:ANC:1,2009-11-01T11:06:00Z,28.1930,-82.7890,-0.471,1111122 
COMPS,ioos:station:USF.COMPS:ANC:1,2009-11-01T11:12:00Z,28.1930,-82.7890,-0.456,1111122 
COMPS,ioos:station:USF.COMPS:ANC:1,2009-11-01T11:18:00Z,28.1930,-82.7890,-0.45,1111122 
COMPS,ioos:station:USF.COMPS:ANC:1,2009-11-01T11:24:00Z,28.1930,-82.7890,-0.446,1111122 
COMPS,ioos:station:USF.COMPS:ANC:1,2009-11-01T11:30:00Z,28.1930,-82.7890,-0.435,1111122 
COMPS,ioos:station:USF.COMPS:ANC:1,2009-11-01T11:36:00Z,28.1930,-82.7890,-0.413,1111122 
COMPS,ioos:station:USF.COMPS:ANC:1,2009-11-01T11:42:00Z,28.1930,-82.7890,-0.391,1111122 
COMPS,ioos:station:USF.COMPS:ANC:1,2009-11-01T11:48:00Z,28.1930,-82.7890,-0.379,1111122 
COMPS,ioos:station:USF.COMPS:ANC:1,2009-11-01T11:54:00Z,28.1930,-82.7890,-0.369,1111122 
COMPS,ioos:station:USF.COMPS:ANC:1,2009-11-01T12:00:00Z,28.1930,-82.7890,-0.352,1111122 
COMPS,ioos:station:USF.COMPS:ANC:1,2009-11-01T12:06:00Z,28.1930,-82.7890,-0.327,1111122 
COMPS,ioos:station:USF.COMPS:ANC:1,2009-11-01T12:12:00Z,28.1930,-82.7890,-0.303,1111122 
COMPS,ioos:station:USF.COMPS:ANC:1,2009-11-01T12:18:00Z,28.1930,-82.7890,-0.287,1111122 
COMPS,ioos:station:USF.COMPS:ANC:1,2009-11-01T12:24:00Z,28.1930,-82.7890,-0.264,1111122 
COMPS,ioos:station:USF.COMPS:ANC:1,2009-11-01T12:30:00Z,28.1930,-82.7890,-0.241,1111122 
COMPS,ioos:station:USF.COMPS:ANC:1,2009-11-01T12:36:00Z,28.1930,-82.7890,-0.222,1111122 
COMPS,ioos:station:USF.COMPS:ANC:1,2009-11-01T12:42:00Z,28.1930,-82.7890,-0.19,1111122 
COMPS,ioos:station:USF.COMPS:ANC:1,2009-11-01T12:48:00Z,28.1930,-82.7890,-0.161,1111122 
COMPS,ioos:station:USF.COMPS:ANC:1,2009-11-01T12:54:00Z,28.1930,-82.7890,-0.14,1111122 
COMPS,ioos:station:USF.COMPS:ANC:1,2009-11-01T13:00:00Z,28.1930,-82.7890,-0.12,1111122 
COMPS,ioos:station:USF.COMPS:ANC:1,2009-11-01T13:06:00Z,28.1930,-82.7890,-0.096,1111122 
COMPS,ioos:station:USF.COMPS:ANC:1,2009-11-01T13:12:00Z,28.1930,-82.7890,-0.07,1111122 
COMPS,ioos:station:USF.COMPS:ANC:1,2009-11-01T13:18:00Z,28.1930,-82.7890,-0.039,1111122 
COMPS,ioos:station:USF.COMPS:ANC:1,2009-11-01T13:24:00Z,28.1930,-82.7890,-0.018,1111122 
COMPS,ioos:station:USF.COMPS:ANC:1,2009-11-01T13:30:00Z,28.1930,-82.7890,0.0,1114422 
COMPS,ioos:station:USF.COMPS:ANC:1,2009-11-01T13:36:00Z,28.1930,-82.7890,0.023,1111122 
COMPS,ioos:station:USF.COMPS:ANC:1,2009-11-01T13:42:00Z,28.1930,-82.7890,0.049,1111122 
COMPS,ioos:station:USF.COMPS:ANC:1,2009-11-01T13:48:00Z,28.1930,-82.7890,0.07,1111122 
COMPS,ioos:station:USF.COMPS:ANC:1,2009-11-01T13:54:00Z,28.1930,-82.7890,0.09,1111122 
COMPS,ioos:station:USF.COMPS:ANC:1,2009-11-01T14:00:00Z,28.1930,-82.7890,0.108,1111122 
COMPS,ioos:station:USF.COMPS:ANC:1,2009-11-01T14:06:00Z,28.1930,-82.7890,0.129,1111122 
COMPS,ioos:station:USF.COMPS:ANC:1,2009-11-01T14:12:00Z,28.1930,-82.7890,0.151,1111122 
COMPS,ioos:station:USF.COMPS:ANC:1,2009-11-01T14:18:00Z,28.1930,-82.7890,0.17,1111122 
COMPS,ioos:station:USF.COMPS:ANC:1,2009-11-01T14:24:00Z,28.1930,-82.7890,0.189,1111122 
COMPS,ioos:station:USF.COMPS:ANC:1,2009-11-01T14:30:00Z,28.1930,-82.7890,0.205,1111122 
COMPS,ioos:station:USF.COMPS:ANC:1,2009-11-01T14:36:00Z,28.1930,-82.7890,0.216,1111122 
COMPS,ioos:station:USF.COMPS:ANC:1,2009-11-01T14:42:00Z,28.1930,-82.7890,0.221,1111122 
COMPS,ioos:station:USF.COMPS:ANC:1,2009-11-01T14:48:00Z,28.1930,-82.7890,0.229,1111122 
COMPS,ioos:station:USF.COMPS:ANC:1,2009-11-01T14:54:00Z,28.1930,-82.7890,0.236,1111122 
COMPS,ioos:station:USF.COMPS:ANC:1,2009-11-01T15:00:00Z,28.1930,-82.7890,0.252,1111122 
COMPS,ioos:station:USF.COMPS:ANC:1,2009-11-01T15:06:00Z,28.1930,-82.7890,0.268,1111122 
COMPS,ioos:station:USF.COMPS:ANC:1,2009-11-01T15:12:00Z,28.1930,-82.7890,0.28,1111122 
COMPS,ioos:station:USF.COMPS:ANC:1,2009-11-01T15:18:00Z,28.1930,-82.7890,0.289,1111122 
COMPS,ioos:station:USF.COMPS:ANC:1,2009-11-01T15:24:00Z,28.1930,-82.7890,0.297,1111122 
COMPS,ioos:station:USF.COMPS:ANC:1,2009-11-01T15:30:00Z,28.1930,-82.7890,0.309,1111122 
COMPS,ioos:station:USF.COMPS:ANC:1,2009-11-01T15:36:00Z,28.1930,-82.7890,0.318,1111122 
COMPS,ioos:station:USF.COMPS:ANC:1,2009-11-01T15:42:00Z,28.1930,-82.7890,0.319,1111122 
COMPS,ioos:station:USF.COMPS:ANC:1,2009-11-01T15:48:00Z,28.1930,-82.7890,0.322,1111122 
COMPS,ioos:station:USF.COMPS:ANC:1,2009-11-01T15:54:00Z,28.1930,-82.7890,0.329,1111122 
COMPS,ioos:station:USF.COMPS:ANC:1,2009-11-01T16:00:00Z,28.1930,-82.7890,0.335,1111122 
COMPS,ioos:station:USF.COMPS:ANC:1,2009-11-01T16:06:00Z,28.1930,-82.7890,0.343,1111122 
COMPS,ioos:station:USF.COMPS:ANC:1,2009-11-01T16:12:00Z,28.1930,-82.7890,0.347,1111122 
COMPS,ioos:station:USF.COMPS:ANC:1,2009-11-01T16:18:00Z,28.1930,-82.7890,0.355,1111122 
COMPS,ioos:station:USF.COMPS:ANC:1,2009-11-01T16:24:00Z,28.1930,-82.7890,0.362,1111122 
COMPS,ioos:station:USF.COMPS:ANC:1,2009-11-01T16:30:00Z,28.1930,-82.7890,0.364,1111122 
COMPS,ioos:station:USF.COMPS:ANC:1,2009-11-01T16:36:00Z,28.1930,-82.7890,0.364,1111122 
COMPS,ioos:station:USF.COMPS:ANC:1,2009-11-01T16:42:00Z,28.1930,-82.7890,0.366,1111122 
COMPS,ioos:station:USF.COMPS:ANC:1,2009-11-01T16:48:00Z,28.1930,-82.7890,0.374,1111122 
COMPS,ioos:station:USF.COMPS:ANC:1,2009-11-01T16:54:00Z,28.1930,-82.7890,0.375,1111122 
COMPS,ioos:station:USF.COMPS:ANC:1,2009-11-01T17:00:00Z,28.1930,-82.7890,0.366,1111122 
COMPS,ioos:station:USF.COMPS:ANC:1,2009-11-01T17:06:00Z,28.1930,-82.7890,0.36,1111122 
COMPS,ioos:station:USF.COMPS:ANC:1,2009-11-01T17:12:00Z,28.1930,-82.7890,0.356,1111122 
COMPS,ioos:station:USF.COMPS:ANC:1,2009-11-01T17:18:00Z,28.1930,-82.7890,0.351,1111122 
COMPS,ioos:station:USF.COMPS:ANC:1,2009-11-01T17:24:00Z,28.1930,-82.7890,0.342,1111122 
COMPS,ioos:station:USF.COMPS:ANC:1,2009-11-01T17:30:00Z,28.1930,-82.7890,0.335,1111122 
COMPS,ioos:station:USF.COMPS:ANC:1,2009-11-01T17:36:00Z,28.1930,-82.7890,0.331,1111122 
COMPS,ioos:station:USF.COMPS:ANC:1,2009-11-01T17:42:00Z,28.1930,-82.7890,0.327,1111122 
COMPS,ioos:station:USF.COMPS:ANC:1,2009-11-01T17:48:00Z,28.1930,-82.7890,0.315,1111122 
COMPS,ioos:station:USF.COMPS:ANC:1,2009-11-01T17:54:00Z,28.1930,-82.7890,0.306,1111122 
COMPS,ioos:station:USF.COMPS:ANC:1,2009-11-01T18:00:00Z,28.1930,-82.7890,0.302,1111122 
COMPS,ioos:station:USF.COMPS:ANC:1,2009-11-01T18:06:00Z,28.1930,-82.7890,0.3,1111122 
COMPS,ioos:station:USF.COMPS:ANC:1,2009-11-01T18:12:00Z,28.1930,-82.7890,0.292,1111122 
COMPS,ioos:station:USF.COMPS:ANC:1,2009-11-01T18:18:00Z,28.1930,-82.7890,0.279,1111122 
COMPS,ioos:station:USF.COMPS:ANC:1,2009-11-01T18:24:00Z,28.1930,-82.7890,0.269,1111122 
COMPS,ioos:station:USF.COMPS:ANC:1,2009-11-01T18:30:00Z,28.1930,-82.7890,0.258,1111122 
COMPS,ioos:station:USF.COMPS:ANC:1,2009-11-01T18:36:00Z,28.1930,-82.7890,0.243,1111122 
COMPS,ioos:station:USF.COMPS:ANC:1,2009-11-01T18:42:00Z,28.1930,-82.7890,0.231,1111122 
COMPS,ioos:station:USF.COMPS:ANC:1,2009-11-01T18:48:00Z,28.1930,-82.7890,0.219,1111122 
COMPS,ioos:station:USF.COMPS:ANC:1,2009-11-01T18:54:00Z,28.1930,-82.7890,0.204,1111122 
COMPS,ioos:station:USF.COMPS:ANC:1,2009-11-01T19:00:00Z,28.1930,-82.7890,0.19,1111122 
COMPS,ioos:station:USF.COMPS:ANC:1,2009-11-01T19:06:00Z,28.1930,-82.7890,0.174,1111122 
COMPS,ioos:station:USF.COMPS:ANC:1,2009-11-01T19:12:00Z,28.1930,-82.7890,0.16,1111122 
COMPS,ioos:station:USF.COMPS:ANC:1,2009-11-01T19:18:00Z,28.1930,-82.7890,0.144,1111122 
COMPS,ioos:station:USF.COMPS:ANC:1,2009-11-01T19:24:00Z,28.1930,-82.7890,0.126,1111122 
COMPS,ioos:station:USF.COMPS:ANC:1,2009-11-01T19:30:00Z,28.1930,-82.7890,0.106,1111122 
COMPS,ioos:station:USF.COMPS:ANC:1,2009-11-01T19:36:00Z,28.1930,-82.7890,0.09,1111122 
COMPS,ioos:station:USF.COMPS:ANC:1,2009-11-01T19:42:00Z,28.1930,-82.7890,0.077,1111122 
COMPS,ioos:station:USF.COMPS:ANC:1,2009-11-01T19:48:00Z,28.1930,-82.7890,0.06,1111122 
COMPS,ioos:station:USF.COMPS:ANC:1,2009-11-01T19:54:00Z,28.1930,-82.7890,0.042,1111122 
COMPS,ioos:station:USF.COMPS:ANC:1,2009-11-01T20:00:00Z,28.1930,-82.7890,0.026,1111122 
COMPS,ioos:station:USF.COMPS:ANC:1,2009-11-01T20:06:00Z,28.1930,-82.7890,0.014,1111122 
COMPS,ioos:station:USF.COMPS:ANC:1,2009-11-01T20:12:00Z,28.1930,-82.7890,0.001,1111122 
COMPS,ioos:station:USF.COMPS:ANC:1,2009-11-01T20:18:00Z,28.1930,-82.7890,-0.013,1111122 
COMPS,ioos:station:USF.COMPS:ANC:1,2009-11-01T20:24:00Z,28.1930,-82.7890,-0.026,1111122 
COMPS,ioos:station:USF.COMPS:ANC:1,2009-11-01T20:30:00Z,28.1930,-82.7890,-0.039,1111122 
COMPS,ioos:station:USF.COMPS:ANC:1,2009-11-01T20:36:00Z,28.1930,-82.7890,-0.053,1111122 
COMPS,ioos:station:USF.COMPS:ANC:1,2009-11-01T20:42:00Z,28.1930,-82.7890,-0.062,1111122 
COMPS,ioos:station:USF.COMPS:ANC:1,2009-11-01T20:48:00Z,28.1930,-82.7890,-0.068,1111122 
COMPS,ioos:station:USF.COMPS:ANC:1,2009-11-01T20:54:00Z,28.1930,-82.7890,-0.073,1111122 
COMPS,ioos:station:USF.COMPS:ANC:1,2009-11-01T21:00:00Z,28.1930,-82.7890,-0.079,1111122 
COMPS,ioos:station:USF.COMPS:ANC:1,2009-11-01T21:06:00Z,28.1930,-82.7890,-0.085,1111122 
COMPS,ioos:station:USF.COMPS:ANC:1,2009-11-01T21:12:00Z,28.1930,-82.7890,-0.088,1111122 
COMPS,ioos:station:USF.COMPS:ANC:1,2009-11-01T21:18:00Z,28.1930,-82.7890,-0.093,1111122 
COMPS,ioos:station:USF.COMPS:ANC:1,2009-11-01T21:24:00Z,28.1930,-82.7890,-0.099,1111122 
COMPS,ioos:station:USF.COMPS:ANC:1,2009-11-01T21:30:00Z,28.1930,-82.7890,-0.106,1111122 
COMPS,ioos:station:USF.COMPS:ANC:1,2009-11-01T21:36:00Z,28.1930,-82.7890,-0.109,1111122 
COMPS,ioos:station:USF.COMPS:ANC:1,2009-11-01T21:42:00Z,28.1930,-82.7890,-0.108,1111122 
COMPS,ioos:station:USF.COMPS:ANC:1,2009-11-01T21:48:00Z,28.1930,-82.7890,-0.108,1111122 
COMPS,ioos:station:USF.COMPS:ANC:1,2009-11-01T21:54:00Z,28.1930,-82.7890,-0.107,1111122 
COMPS,ioos:station:USF.COMPS:ANC:1,2009-11-01T22:00:00Z,28.1930,-82.7890,-0.11,1111122 
COMPS,ioos:station:USF.COMPS:ANC:1,2009-11-01T22:06:00Z,28.1930,-82.7890,-0.111,1111122 
COMPS,ioos:station:USF.COMPS:ANC:1,2009-11-01T22:12:00Z,28.1930,-82.7890,-0.106,1111122 
COMPS,ioos:station:USF.COMPS:ANC:1,2009-11-01T22:18:00Z,28.1930,-82.7890,-0.103,1111122 
COMPS,ioos:station:USF.COMPS:ANC:1,2009-11-01T22:24:00Z,28.1930,-82.7890,-0.097,1111122 
COMPS,ioos:station:USF.COMPS:ANC:1,2009-11-01T22:30:00Z,28.1930,-82.7890,-0.086,1111122 
COMPS,ioos:station:USF.COMPS:ANC:1,2009-11-01T22:36:00Z,28.1930,-82.7890,-0.076,1111122 
COMPS,ioos:station:USF.COMPS:ANC:1,2009-11-01T22:42:00Z,28.1930,-82.7890,-0.069,1111122 
COMPS,ioos:station:USF.COMPS:ANC:1,2009-11-01T22:48:00Z,28.1930,-82.7890,-0.063,1111122 
COMPS,ioos:station:USF.COMPS:ANC:1,2009-11-01T22:54:00Z,28.1930,-82.7890,-0.054,1111122 
COMPS,ioos:station:USF.COMPS:ANC:1,2009-11-01T23:00:00Z,28.1930,-82.7890,-0.041,1111122 
COMPS,ioos:station:USF.COMPS:ANC:1,2009-11-01T23:06:00Z,28.1930,-82.7890,-0.029,1111122 
COMPS,ioos:station:USF.COMPS:ANC:1,2009-11-01T23:12:00Z,28.1930,-82.7890,-0.016,1111122 
COMPS,ioos:station:USF.COMPS:ANC:1,2009-11-01T23:18:00Z,28.1930,-82.7890,0.0,1114422 
COMPS,ioos:station:USF.COMPS:ANC:1,2009-11-01T23:24:00Z,28.1930,-82.7890,0.016,1111122 
COMPS,ioos:station:USF.COMPS:ANC:1,2009-11-01T23:30:00Z,28.1930,-82.7890,0.027,1111122 
COMPS,ioos:station:USF.COMPS:ANC:1,2009-11-01T23:36:00Z,28.1930,-82.7890,0.04,1111122 
COMPS,ioos:station:USF.COMPS:ANC:1,2009-11-01T23:42:00Z,28.1930,-82.7890,0.055,1111122 
COMPS,ioos:station:USF.COMPS:ANC:1,2009-11-01T23:48:00Z,28.1930,-82.7890,0.069,1111122 
COMPS,ioos:station:USF.COMPS:ANC:1,2009-11-01T23:54:00Z,28.1930,-82.7890,0.085,1111122 
COMPS,ioos:station:USF.COMPS:ANC:1,2009-11-02T00:00:00Z,28.1930,-82.7890,0.107,1111122 
COMPS,ioos:station:USF.COMPS:ANC:1,2009-11-02T00:06:00Z,28.1930,-82.7890,0.128,1111122 
COMPS,ioos:station:USF.COMPS:ANC:1,2009-11-02T00:12:00Z,28.1930,-82.7890,0.143,1111122 
COMPS,ioos:station:USF.COMPS:ANC:1,2009-11-02T00:18:00Z,28.1930,-82.7890,0.156,1111122 
COMPS,ioos:station:USF.COMPS:ANC:1,2009-11-02T00:24:00Z,28.1930,-82.7890,0.169,1111122 
COMPS,ioos:station:USF.COMPS:ANC:1,2009-11-02T00:30:00Z,28.1930,-82.7890,0.188,1111122 
COMPS,ioos:station:USF.COMPS:ANC:1,2009-11-02T00:36:00Z,28.1930,-82.7890,0.212,1111122 
COMPS,ioos:station:USF.COMPS:ANC:1,2009-11-02T00:42:00Z,28.1930,-82.7890,0.231,1111122 
COMPS,ioos:station:USF.COMPS:ANC:1,2009-11-02T00:48:00Z,28.1930,-82.7890,0.245,1111122 
COMPS,ioos:station:USF.COMPS:ANC:1,2009-11-02T00:54:00Z,28.1930,-82.7890,0.261,1111122 
COMPS,ioos:station:USF.COMPS:ANC:1,2009-11-02T01:00:00Z,28.1930,-82.7890,0.283,1111122 
COMPS,ioos:station:USF.COMPS:ANC:1,2009-11-02T01:06:00Z,28.1930,-82.7890,0.301,1111122 
COMPS,ioos:station:USF.COMPS:ANC:1,2009-11-02T01:12:00Z,28.1930,-82.7890,0.318,1111122 
COMPS,ioos:station:USF.COMPS:ANC:1,2009-11-02T01:18:00Z,28.1930,-82.7890,0.336,1111122 
COMPS,ioos:station:USF.COMPS:ANC:1,2009-11-02T01:24:00Z,28.1930,-82.7890,0.353,1111122 
COMPS,ioos:station:USF.COMPS:ANC:1,2009-11-02T01:30:00Z,28.1930,-82.7890,0.366,1111122 
COMPS,ioos:station:USF.COMPS:ANC:1,2009-11-02T01:36:00Z,28.1930,-82.7890,0.379,1111122 
COMPS,ioos:station:USF.COMPS:ANC:1,2009-11-02T01:42:00Z,28.1930,-82.7890,0.396,1111122 
COMPS,ioos:station:USF.COMPS:ANC:1,2009-11-02T01:48:00Z,28.1930,-82.7890,0.413,1111122 
COMPS,ioos:station:USF.COMPS:ANC:1,2009-11-02T01:54:00Z,28.1930,-82.7890,0.427,1111122 
COMPS,ioos:station:USF.COMPS:ANC:1,2009-11-02T02:00:00Z,28.1930,-82.7890,0.443,1111122 
COMPS,ioos:station:USF.COMPS:ANC:1,2009-11-02T02:06:00Z,28.1930,-82.7890,0.458,1111122 
COMPS,ioos:station:USF.COMPS:ANC:1,2009-11-02T02:12:00Z,28.1930,-82.7890,0.468,1111122 
COMPS,ioos:station:USF.COMPS:ANC:1,2009-11-02T02:18:00Z,28.1930,-82.7890,0.458,1111122 
COMPS,ioos:station:USF.COMPS:ANC:1,2009-11-02T02:24:00Z,28.1930,-82.7890,0.482,1111122 
COMPS,ioos:station:USF.COMPS:ANC:1,2009-11-02T02:30:00Z,28.1930,-82.7890,0.492,1111122 
COMPS,ioos:station:USF.COMPS:ANC:1,2009-11-02T02:36:00Z,28.1930,-82.7890,0.498,1111122 
COMPS,ioos:station:USF.COMPS:ANC:1,2009-11-02T02:42:00Z,28.1930,-82.7890,0.507,1111122 
COMPS,ioos:station:USF.COMPS:ANC:1,2009-11-02T02:48:00Z,28.1930,-82.7890,0.52,1111122 
COMPS,ioos:station:USF.COMPS:ANC:1,2009-11-02T02:54:00Z,28.1930,-82.7890,0.532,1111122 
COMPS,ioos:station:USF.COMPS:ANC:1,2009-11-02T03:00:00Z,28.1930,-82.7890,0.54,1111122 